sat.trackr.live / text

‹ back to catalog

STARLINK-32703

NORAD 62996 · 2025-031R

PAYLOAD ACTIVE UNKNOWN

§ Identity

Operator
Country
US
Launch date
2025-02-11
Launch site
AFETR
Launch vehicle
Mass (kg)
RCS (m²)

Purposes: comms

External: N2YO · Heavens-Above · Gunter

§ Orbital elements

Epoch: 2026-05-25T03:21:39.411072Z

Period
94.27 min
Inclination
43.0009°
Eccentricity
0.0001140
Mean motion
15.27591448 rev/d
Perigee alt
482.2 km
Apogee alt
483.8 km
Semi-major
6,861.2 km
B*
5.8858e-4
RAAN
71.9035°
Arg perigee
267.9102°
Mean anomaly
92.1619°
Rev number
7,278

§ Raw data

STARLINK-327031 62996U 25031R   26145.14003948  .00015975  00000+0  58858-3 0  99932 62996  43.0009  71.9035 0001140 267.9102  92.1619 15.27591448 72786

JSON: /api/v1/satellites/62996 · /tle

For live sub-satellite position, see the globe view (requires WebGL).

§ Visibility from observer

Set your observer location to see the next 7 days of passes ≥ 10°. The values pass through the URL so the page stays shareable.

No JS? Fill the form by hand. The geolocation button needs JavaScript.